Location: Gensac
(43.2177°N, 1.1313°E)
Time: 09:55:06
(UTC+00:00)

Thor Agena Rocket - Pass Details

Date: 08 December 2025
Orbit: 754 x 802 km, 99.1° (Epoch: 21 January)

Event Time Altitude Azimuth Distance (km) Brightness Sun altitude
Rises 06:39:48 0° 10° (N) 3,243 6.6 -6.5°
Reaches altitude 10° 06:42:09 10° 6° (N) 2,307 5.8 -6.1°
Maximum altitude 06:47:05 55° 290° (WNW) 909 3.6 -5.3°
Drops below altitude 10° 06:51:58 10° 213° (SSW) 2,275 5.9 -4.5°
Sets 06:54:16 0° 209° (SSW) 3,195 6.7 -4.1°
